User: anonymous   Login
Location: Haliburton Scout Reserve
(45.0900°N, 78.3200°W)
Time: 07:03:59
(UTC-04:00)
Language:

Courier 1B - Orbit

View from above orbital plane
View from above orbital plane
View from above satellite
View from above satellite

Ground track
Ground track

The orbit data is extracted from the following two-line orbital elements,

1    58U 60013A   24111.17270559  .00000152  00000-0  99564-4 0  9993
2    58  28.3259 178.0899 0164808 162.7810 197.8406 13.46372497128325
Epoch (UTC): 20 April 2024 04:08:41
Eccentricity: 0.0164808
inclination: 28.3259°
perigee height: 962 km
apogee height: 1208 km
right ascension of ascending node: 178.0899°
argument of perigee: 162.7810°
revolutions per day: 13.46372497
mean anomaly at epoch: 197.8406°
orbit number at epoch: 12832

The dashed part of the orbit path shows where the satellite is in the earth's shadow,  

DLR